• en Belgique
  • Liste des pays
  • À 7 jours
  • Température de l'eau
  • Carte satellitaire
  • Carte météo
  • Widgets météo
  • user-avatar
    Se connecter

    Météo par heure à Binche

    Ce jour, 22 Novembre, Mercredi

    Heure Température Précipitation Vent Pression Humidité
    00:00 +8°C° 0 mm 6 m/s 747 mmHg 90%
    01:00 +8°C° 0 mm 6 m/s 747 mmHg 90%
    02:00 +8°C° 0 mm 6 m/s 746 mmHg 91%
    03:00 +8°C° 0 mm 6 m/s 746 mmHg 92%
    04:00 +8°C° 0 mm 6 m/s 746 mmHg 91%
    05:00 +7°C° 0 mm 6 m/s 746 mmHg 90%
    06:00 +7°C° 0 mm 6 m/s 746 mmHg 90%
    07:00 +7°C° 0 mm 6 m/s 746 mmHg 88%
    08:00 +7°C° 0 mm 6 m/s 746 mmHg 87%
    09:00 +6°C° 0 mm 7 m/s 745 mmHg 85%
    10:00 +8°C° 0 mm 7 m/s 745 mmHg 80%
    11:00 +9°C° 0 mm 7 m/s 745 mmHg 74%
    12:00 +10°C° 0 mm 7 m/s 744 mmHg 69%
    13:00 +10°C° 0 mm 7 m/s 744 mmHg 67%
    14:00 +10°C° 0 mm 7 m/s 743 mmHg 66%
    15:00 +10°C° 0 mm 7 m/s 742 mmHg 65%
    16:00 +9°C° 0 mm 7 m/s 742 mmHg 65%
    17:00 +9°C° 0 mm 7 m/s 742 mmHg 65%
    18:00 +8°C° 0 mm 7 m/s 741 mmHg 64%
    19:00 +8°C° 0 mm 7 m/s 741 mmHg 64%
    20:00 +8°C° 0 mm 7 m/s 741 mmHg 63%
    21:00 +9°C° 0 mm 7 m/s 741 mmHg 63%
    22:00 +9°C° 0 mm 8 m/s 740 mmHg 63%
    23:00 +7°C° 0 mm 8 m/s 740 mmHg 62%

    Demain, 23 Novembre, Jeudi

    Heure Température Précipitation Vent Pression Humidité
    00:00 +7°C° 0 mm 8 m/s 740 mmHg 62%
    01:00 +8°C° 0 mm 9 m/s 739 mmHg 63%
    02:00 +8°C° 0 mm 9 m/s 739 mmHg 63%
    03:00 +9°C° 0 mm 10 m/s 739 mmHg 63%
    04:00 +9°C° 0 mm 10 m/s 739 mmHg 64%
    05:00 +11°C° 0 mm 10 m/s 739 mmHg 65%
    06:00 +11°C° 0 mm 10 m/s 739 mmHg 66%
    07:00 +11°C° 0 mm 10 m/s 739 mmHg 67%
    08:00 +12°C° 0 mm 10 m/s 740 mmHg 69%
    09:00 +12°C° 0 mm 10 m/s 740 mmHg 71%
    10:00 +12°C° 0,2 mm 10 m/s 741 mmHg 72%
    11:00 +12°C° 0,2 mm 10 m/s 741 mmHg 74%
    12:00 +12°C° 0,2 mm 10 m/s 741 mmHg 75%
    13:00 +12°C° 0,4 mm 9 m/s 742 mmHg 77%
    14:00 +11°C° 0,4 mm 7 m/s 743 mmHg 78%
    15:00 +12°C° 0,4 mm 5 m/s 744 mmHg 80%
    16:00 +10°C° 0,1 mm 5 m/s 744 mmHg 82%
    17:00 +11°C° 0,1 mm 4 m/s 745 mmHg 83%
    18:00 +11°C° 0,1 mm 3 m/s 745 mmHg 85%
    19:00 +11°C° 0,1 mm 4 m/s 745 mmHg 86%
    20:00 +10°C° 0,1 mm 5 m/s 745 mmHg 87%
    21:00 +10°C° 0,1 mm 5 m/s 745 mmHg 89%
    22:00 +10°C° 0,3 mm 6 m/s 745 mmHg 87%
    23:00 +11°C° 0,3 mm 8 m/s 745 mmHg 85%

    Après-demain, 24 Novembre, Vendredi

    Heure Température Précipitation Vent Pression Humidité
    00:00 +11°C° 0,3 mm 9 m/s 744 mmHg 82%
    01:00 +11°C° 0,3 mm 8 m/s 744 mmHg 83%
    02:00 +11°C° 0,3 mm 8 m/s 744 mmHg 83%
    03:00 +11°C° 0,3 mm 7 m/s 745 mmHg 83%
    04:00 +11°C° 0,8 mm 6 m/s 745 mmHg 85%
    05:00 +10°C° 0,8 mm 6 m/s 745 mmHg 87%
    06:00 +10°C° 0,8 mm 5 m/s 745 mmHg 89%
    07:00 +10°C° 0,2 mm 5 m/s 745 mmHg 90%
    08:00 +10°C° 0,2 mm 5 m/s 745 mmHg 90%
    09:00 +10°C° 0,2 mm 5 m/s 746 mmHg 90%
    10:00 +10°C° 1,7 mm 5 m/s 745 mmHg 91%
    11:00 +10°C° 1,7 mm 5 m/s 745 mmHg 92%
    12:00 +10°C° 1,7 mm 5 m/s 745 mmHg 92%
    13:00 +10°C° 1 mm 5 m/s 745 mmHg 91%
    14:00 +10°C° 1 mm 5 m/s 744 mmHg 91%
    15:00 +10°C° 1 mm 5 m/s 744 mmHg 90%
    16:00 +10°C° 0,2 mm 5 m/s 744 mmHg 90%
    17:00 +10°C° 0,2 mm 6 m/s 743 mmHg 89%
    18:00 +10°C° 0,2 mm 6 m/s 743 mmHg 89%
    19:00 +10°C° 0,7 mm 6 m/s 743 mmHg 90%
    20:00 +10°C° 0,7 mm 7 m/s 742 mmHg 90%
    21:00 +10°C° 0,7 mm 7 m/s 741 mmHg 90%
    22:00 +10°C° 0,9 mm 7 m/s 741 mmHg 91%
    23:00 +10°C° 0,9 mm 7 m/s 740 mmHg 91%

    25 Novembre, Samedi

    Heure Température Précipitation Vent Pression Humidité
    00:00 +10°C° 0,9 mm 7 m/s 739 mmHg 91%
    01:00 +9°C° 0,9 mm 7 m/s 739 mmHg 87%
    02:00 +9°C° 0,9 mm 8 m/s 739 mmHg 83%
    03:00 +7°C° 0,9 mm 9 m/s 738 mmHg 80%
    04:00 +6°C° 0,1 mm 9 m/s 739 mmHg 79%
    05:00 +5°C° 0,1 mm 9 m/s 740 mmHg 78%
    06:00 +3°C° 0,1 mm 9 m/s 742 mmHg 77%
    07:00 +4°C° 0,1 mm 8 m/s 743 mmHg 76%
    08:00 +2°C° 0,1 mm 8 m/s 744 mmHg 74%
    09:00 +3°C° 0,1 mm 7 m/s 746 mmHg 72%
    10:00 +3°C° 0 mm 7 m/s 747 mmHg 67%
    11:00 +4°C° 0 mm 8 m/s 747 mmHg 62%
    12:00 +4°C° 0 mm 8 m/s 748 mmHg 57%
    13:00 +4°C° 0 mm 7 m/s 748 mmHg 59%
    14:00 +4°C° 0 mm 6 m/s 748 mmHg 61%
    15:00 +3°C° 0 mm 5 m/s 749 mmHg 63%
    16:00 +3°C° 0 mm 6 m/s 749 mmHg 65%
    17:00 +2°C° 0 mm 6 m/s 749 mmHg 67%
    18:00 +2°C° 0 mm 6 m/s 749 mmHg 69%
    19:00 +2°C° 0 mm 6 m/s 750 mmHg 70%
    20:00 +2°C° 0 mm 6 m/s 750 mmHg 71%
    21:00 +2°C° 0 mm 5 m/s 750 mmHg 72%
    22:00 +1°C° 0 mm 5 m/s 750 mmHg 74%
    23:00 +1°C° 0 mm 5 m/s 750 mmHg 76%

    26 Novembre, Dimanche

    Heure Température Précipitation Vent Pression Humidité
    00:00 +1°C° 0 mm 5 m/s 750 mmHg 77%
    01:00 +1°C° 0 mm 6 m/s 750 mmHg 78%
    02:00 +1°C° 0 mm 6 m/s 750 mmHg 78%
    03:00 +1°C° 0 mm 6 m/s 750 mmHg 79%
    04:00 +1°C° 0 mm 6 m/s 750 mmHg 79%
    05:00 +1°C° 0 mm 6 m/s 751 mmHg 80%
    06:00 +1°C° 0 mm 6 m/s 751 mmHg 80%
    07:00 +1°C° 0 mm 6 m/s 751 mmHg 79%
    08:00 +2°C° 0 mm 6 m/s 751 mmHg 78%
    09:00 +2°C° 0 mm 6 m/s 752 mmHg 77%
    10:00 +3°C° 0 mm 6 m/s 752 mmHg 75%
    11:00 +4°C° 0 mm 6 m/s 752 mmHg 73%
    12:00 +5°C° 0 mm 6 m/s 752 mmHg 71%
    13:00 +4°C° 0,1 mm 6 m/s 752 mmHg 72%
    14:00 +4°C° 0,1 mm 6 m/s 752 mmHg 74%
    15:00 +5°C° 0,1 mm 5 m/s 752 mmHg 75%
    16:00 +3°C° 0,3 mm 5 m/s 752 mmHg 78%
    17:00 +3°C° 0,3 mm 5 m/s 753 mmHg 80%
    18:00 +3°C° 0,3 mm 5 m/s 753 mmHg 82%
    19:00 +2°C° 0,1 mm 5 m/s 753 mmHg 83%
    20:00 +3°C° 0,1 mm 4 m/s 754 mmHg 85%
    21:00 +3°C° 0,1 mm 4 m/s 754 mmHg 86%
    22:00 +1°C° 0 mm 4 m/s 754 mmHg 87%
    23:00 +1°C° 0 mm 4 m/s 754 mmHg 87%

    27 Novembre, Lundi

    Heure Température Précipitation Vent Pression Humidité
    00:00 0°C° 0 mm 4 m/s 755 mmHg 87%
    01:00 0°C° 0 mm 4 m/s 755 mmHg 88%
    02:00 +1°C° 0 mm 3 m/s 755 mmHg 88%
    03:00 +1°C° 0 mm 3 m/s 755 mmHg 88%
    04:00 0°C° 0 mm 3 m/s 756 mmHg 89%
    05:00 0°C° 0 mm 3 m/s 756 mmHg 89%
    06:00 0°C° 0 mm 3 m/s 756 mmHg 89%
    07:00 0°C° 0 mm 4 m/s 756 mmHg 87%
    08:00 0°C° 0 mm 4 m/s 756 mmHg 86%
    09:00 +1°C° 0 mm 4 m/s 756 mmHg 84%
    10:00 +2°C° 0 mm 5 m/s 755 mmHg 81%
    11:00 +3°C° 0 mm 6 m/s 755 mmHg 78%
    12:00 +4°C° 0 mm 6 m/s 754 mmHg 76%
    13:00 +4°C° 0 mm 6 m/s 753 mmHg 77%
    14:00 +4°C° 0 mm 6 m/s 753 mmHg 77%
    15:00 +4°C° 0 mm 6 m/s 752 mmHg 78%
    16:00 +3°C° 0 mm 6 m/s 751 mmHg 78%
    17:00 +2°C° 0 mm 7 m/s 751 mmHg 79%
    18:00 +2°C° 0 mm 7 m/s 750 mmHg 79%
    19:00 +2°C° 0 mm 7 m/s 749 mmHg 79%
    20:00 +2°C° 0 mm 7 m/s 748 mmHg 79%
    21:00 +2°C° 0 mm 7 m/s 748 mmHg 80%
    22:00 0°C° 0 mm 7 m/s 747 mmHg 80%
    23:00 0°C° 0 mm 7 m/s 746 mmHg 81%
    Voir plus